Вернуться в каталог

STPSAT-7

АктивенНаукаVLEO
NORAD 68630·PAYLOAD·🇺🇸 United States

Запущен Apr 7, 2026 с Vandenberg Space Force Base

Loading…

Ближайшие Пролёты (ближайшие 24 часа)

TLE

СвежийSource: Space-Track

Эпоха: Sep 14, 2026, 03:09 UTC

1 68630U 26074D   26257.13126327  .00004980  00000-0  20343-3 0  9995
2 68630  60.0211 196.5504 0035749  86.5560 273.9609 15.25426693 24345

Отслеживайте STPSAT-7 в реальном времени с AllMySat

Download on the App Store